| time (UTC) | temp C | wind direction | speed KPH | gust KPH | rain 1hr cm | rain 24hr cm | rain mn cm | humidity % | barometer mb |
| 20260508013829 | 19 | 220 | 12.9 | 0.0 | 0.00 | 0.00 | 0.00 | 70 | 1014.0 |
| 20260508011828 | 19 | 220 | 12.9 | 0.0 | 0.00 | 0.00 | 0.00 | 70 | 1014.0 |
| 20260508005827 | 19 | 220 | 12.9 | 0.0 | 0.00 | 0.00 | 0.00 | 69 | 1013.0 |
| 20260508003826 | 19 | 220 | 12.9 | 0.0 | 0.00 | 0.00 | 0.00 | 69 | 1012.0 |
| 20260508001825 | 20 | 220 | 12.9 | 0.0 | 0.00 | 0.00 | 0.00 | 68 | 1011.0 |
| 20260507235824 | 20 | 220 | 14.5 | 0.0 | 0.00 | 0.00 | 0.00 | 66 | 1011.0 |
| 20260507233823 | 21 | 220 | 14.5 | 0.0 | 0.00 | 0.00 | 0.00 | 66 | 1011.0 |
| 20260507231823 | 22 | 220 | 14.5 | 0.0 | 0.00 | 0.00 | 0.00 | 69 | 1011.0 |
| 20260507225821 | 22 | 220 | 8.0 | 0.0 | 0.00 | 0.00 | 0.00 | 72 | 1010.0 |
| 20260507223820 | 22 | 220 | 8.0 | 0.0 | 0.00 | 0.00 | 0.00 | 72 | 1010.0 |
| 20260507221819 | 22 | 220 | 8.0 | 0.0 | 0.00 | 0.00 | 0.00 | 72 | 1010.0 |
| 20260507215818 | 22 | 220 | 8.0 | 0.0 | 0.00 | 0.00 | 0.00 | 72 | 1009.0 |
| 20260507213817 | 22 | 220 | 8.0 | 0.0 | 0.00 | 0.00 | 0.00 | 72 | 1009.0 |
| 20260507211816 | 22 | 220 | 8.0 | 0.0 | 0.00 | 0.00 | 0.00 | 72 | 1010.0 |
| 20260507205816 | 23 | 220 | 8.0 | 0.0 | 0.00 | 0.00 | 0.00 | 72 | 1009.0 |
| 20260507203815 | 23 | 220 | 8.0 | 0.0 | 0.00 | 0.00 | 0.00 | 72 | 1009.0 |
| 20260507201814 | 23 | 220 | 8.0 | 0.0 | 0.00 | 0.00 | 0.00 | 72 | 1009.0 |
| 20260507195813 | 23 | 220 | 8.0 | 0.0 | 0.00 | 0.00 | 0.00 | 72 | 1008.0 |
| 20260507193812 | 23 | 220 | 8.0 | 0.0 | 0.00 | 0.00 | 0.00 | 72 | 1009.0 |
| 20260507191811 | 23 | 220 | 8.0 | 0.0 | 0.00 | 0.00 | 0.00 | 72 | 1010.0 |
| 20260507185810 | 24 | 0 | 6.4 | 0.0 | 0.00 | 0.00 | 0.00 | 71 | 1009.0 |
| 20260507183809 | 24 | 0 | 6.4 | 0.0 | 0.00 | 0.00 | 0.00 | 71 | 1009.0 |
| 20260507181808 | 24 | 220 | 8.0 | 0.0 | 0.00 | 0.00 | 0.00 | 71 | 1011.0 |
| 20260507175807 | 24 | 220 | 8.0 | 0.0 | 0.00 | 0.00 | 0.00 | 72 | 1010.0 |
| 20260507173806 | 23 | 220 | 8.0 | 0.0 | 0.00 | 0.00 | 0.00 | 72 | 1011.0 |
| 20260507171805 | 23 | 220 | 8.0 | 0.0 | 0.00 | 0.00 | 0.00 | 72 | 1013.0 |
| 20260507165804 | 24 | 220 | 8.0 | 0.0 | 0.00 | 0.00 | 0.00 | 73 | 1012.0 |
| 20260507163803 | 22 | 0 | 1.6 | 0.0 | 0.00 | 0.00 | 0.00 | 83 | 1013.0 |
| 20260507161802 | 22 | 0 | 1.6 | 0.0 | 0.00 | 0.00 | 0.00 | 83 | 1015.0 |
| 20260507155802 | 23 | 0 | 3.2 | 0.0 | 0.00 | 0.00 | 0.00 | 83 | 1014.0 |
| 20260507153801 | 21 | 0 | 1.6 | 0.0 | 0.00 | 0.00 | 0.00 | 83 | 1014.0 |
| 20260507151800 | 21 | 0 | 1.6 | 0.0 | 0.00 | 0.00 | 0.00 | 83 | 1016.0 |
| 20260507145759 | 22 | 0 | 1.6 | 0.0 | 0.00 | 0.00 | 0.00 | 83 | 1015.0 |
| 20260507143758 | 23 | 0 | 3.2 | 0.0 | 0.00 | 0.00 | 0.00 | 83 | 1015.0 |
| 20260507141757 | 20 | 0 | 3.2 | 0.0 | 0.00 | 0.00 | 0.00 | 81 | 1016.0 |
| 20260507135756 | 18 | 0 | 1.6 | 0.0 | 0.00 | 0.00 | 0.00 | 81 | 1016.0 |
| 20260507133755 | 19 | 0 | 1.6 | 0.0 | 0.00 | 0.00 | 0.00 | 81 | 1016.0 |
| 20260507131754 | 18 | 0 | 1.6 | 0.0 | 0.00 | 0.00 | 0.00 | 78 | 1016.0 |
| 20260507125753 | 18 | 297 | 1.6 | 0.0 | 0.00 | 0.00 | 0.00 | 75 | 1016.0 |
| 20260507123752 | 14 | 210 | 12.9 | 0.0 | 0.00 | 0.00 | 0.00 | 81 | 1016.0 |
| 20260507121751 | 15 | 210 | 12.9 | 0.0 | 0.00 | 0.00 | 0.00 | 81 | 1015.0 |
| 20260507115750 | 15 | 210 | 12.9 | 0.0 | 0.00 | 0.00 | 0.00 | 81 | 1015.0 |
| 20260507113749 | 15 | 210 | 12.9 | 0.0 | 0.00 | 0.00 | 0.00 | 81 | 1015.0 |
| 20260507111748 | 15 | 210 | 12.9 | 0.0 | 0.00 | 0.00 | 0.00 | 81 | 1016.0 |
| 20260507105747 | 15 | 210 | 12.9 | 0.0 | 0.00 | 0.00 | 0.00 | 82 | 1015.0 |
| 20260507103746 | 15 | 210 | 12.9 | 0.0 | 0.00 | 0.00 | 0.00 | 82 | 1015.0 |
| 20260507101746 | 15 | 210 | 12.9 | 0.0 | 0.00 | 0.00 | 0.00 | 82 | 1016.0 |
| 20260507095745 | 15 | 210 | 12.9 | 0.0 | 0.00 | 0.00 | 0.00 | 81 | 1015.0 |
| 20260507093744 | 15 | 210 | 12.9 | 0.0 | 0.00 | 0.00 | 0.00 | 81 | 1015.0 |
| 20260507091743 | 15 | 210 | 12.9 | 0.0 | 0.00 | 0.00 | 0.00 | 81 | 1016.0 |
| 20260507085742 | 15 | 210 | 12.9 | 0.0 | 0.00 | 0.00 | 0.00 | 81 | 1015.0 |
| 20260507083741 | 15 | 210 | 12.9 | 0.0 | 0.00 | 0.00 | 0.00 | 81 | 1015.0 |
| 20260507081740 | 15 | 210 | 12.9 | 0.0 | 0.00 | 0.00 | 0.00 | 81 | 1016.0 |
| 20260507075739 | 15 | 210 | 12.9 | 0.0 | 0.00 | 0.00 | 0.00 | 81 | 1015.0 |
| 20260507073738 | 15 | 210 | 12.9 | 0.0 | 0.00 | 0.00 | 0.00 | 81 | 1015.0 |
| 20260507071737 | 15 | 210 | 12.9 | 0.0 | 0.00 | 0.00 | 0.00 | 81 | 1016.0 |
| 20260507065736 | 15 | 210 | 12.9 | 0.0 | 0.00 | 0.00 | 0.00 | 81 | 1015.0 |
| 20260507063735 | 15 | 210 | 12.9 | 0.0 | 0.00 | 0.00 | 0.00 | 81 | 1015.0 |
| 20260507061734 | 15 | 210 | 12.9 | 0.0 | 0.00 | 0.00 | 0.00 | 81 | 1016.0 |
| 20260507055733 | 15 | 210 | 12.9 | 0.0 | 0.00 | 0.00 | 0.00 | 80 | 1015.0 |
| 20260507053732 | 15 | 210 | 12.9 | 0.0 | 0.00 | 0.00 | 0.00 | 80 | 1016.0 |
| 20260507051731 | 15 | 210 | 12.9 | 0.0 | 0.00 | 0.00 | 0.00 | 80 | 1017.0 |
| 20260507045730 | 15 | 210 | 12.9 | 0.0 | 0.00 | 0.00 | 0.00 | 80 | 1016.0 |
| 20260507043729 | 15 | 210 | 12.9 | 0.0 | 0.00 | 0.00 | 0.00 | 80 | 1016.0 |
| 20260507041728 | 15 | 210 | 12.9 | 0.0 | 0.00 | 0.00 | 0.00 | 80 | 1017.0 |
| 20260507035727 | 16 | 210 | 12.9 | 0.0 | 0.00 | 0.00 | 0.00 | 80 | 1016.0 |
| 20260507033726 | 16 | 210 | 12.9 | 0.0 | 0.00 | 0.00 | 0.00 | 80 | 1016.0 |
| 20260507031726 | 16 | 210 | 12.9 | 0.0 | 0.00 | 0.00 | 0.00 | 80 | 1016.0 |
| 20260507025725 | 16 | 210 | 12.9 | 0.0 | 0.00 | 0.00 | 0.00 | 80 | 1015.0 |
| 20260507023724 | 16 | 210 | 12.9 | 0.0 | 0.00 | 0.00 | 0.00 | 80 | 1015.0 |
| 20260507021723 | 16 | 210 | 12.9 | 0.0 | 0.00 | 0.00 | 0.00 | 80 | 1015.0 |
| 20260507015721 | 17 | 210 | 12.9 | 0.0 | 0.00 | 0.00 | 0.00 | 80 | 1014.0 |